Regional Weather Roundup
Issued by NWS Binghamton, NY

Home | Current Version | Previous Version | Text Only | Print | Product List | Glossary On
Versions: 1 2 3 4 5 6 7 8 9 10 11 12 13 14 15 16 17 18 19 20 21 22 23 24 25 26 27 28 29 30 31 32 33 34 35 36 37 38 39 40 41 42 43 44 45 46 47 48 49 50
000
ASUS41 KBGM 290110
RWRBGM
RWRBGM
BINGHAMTON REGIONAL WEATHER ROUNDUP
NATIONAL WEATHER SERVICE BINGHAMTON NY
900 PM EDT THU AUG 28 2014

Note: "fair" indicates few or no clouds below 12,000 feet with no
significant weather and/or obstructions to visibility.

* = Station(s) that does not report precipitation, such as rain,
snow, etc, also no thunder or fog.

!NYZ009-015>018-022>025-036-037-044>046-055>057-062-290200
...CENTRAL NEW YORK...

CITY           SKY/WX    TMP DP  RH WIND       PRES   REMARKS
BINGHAMTON     CLEAR     58  49  72 NW7       30.11R
CORTLAND       MOCLDY    54  52  94 CALM      30.12R
DANSVILLE      CLEAR     57  50  77 S3        30.14R
ELMIRA         CLEAR     55  50  83 CALM      30.12R
ITHACA         CLEAR     54  52  93 NE5       30.12R
HAMILTON       CLOUDY    63  52  67 CALM      30.09R
MONTICELLO     CLEAR     55  46  71 NW7       30.09R
NORWICH        CLOUDY    57  54  88 CALM      30.10S
ONEONTA        MOCLDY    57  48  72 CALM      30.10R
PENN YAN       CLEAR     58  51  78 SW3       30.12R
ROME           CLOUDY    62  54  74 NW5       30.09R
SIDNEY         CLOUDY    61  54  77 CALM      30.10R
SYRACUSE       MOCLDY    63  53  70 W8        30.08R
$$

!PAZ038>040-043-044-047-048-072-290200
...NORTHEAST PENNSYLVANIA...

CITY           SKY/WX    TMP DP  RH WIND       PRES   REMARKS
HAZLETON       CLEAR     61  46  59 N10G18    30.13R
SCRANTON       CLEAR     62  46  55 N5        30.10R
TOWANDA*       CLEAR     57  50  77 CALM      30.12R
$$
&&
KEY
WCI = WIND CHILL INDEX
VSB = VISIBILITY
HX  = HEAT INDEX
$$



USA.gov is the U.S. government's official web portal to all federal, state and local government web resources and services.